EW1440 Weather Reports


Display with metric or nautical units.
time (UTC)temp
F
wind
direction
speed
MPH
gust
MPH
rain 1hr
in
rain 24hr
in
rain mn
in
humidity
%
barometer
mb
20260510071030 73 0 0.0 0.0 0.00 0.02 0.00 78 1011.8
20260510070530 73 0 0.0 2.0 0.00 0.02 0.00 78 1011.7
20260510070056 73 0 0.0 3.0 0.00 0.02 0.00 78 1011.7
20260510065531 73 0 0.0 4.0 0.00 0.02 0.00 78 1011.8
20260510065030 73 141 1.0 6.0 0.00 0.02 0.00 78 1011.7
20260510064619 73 141 2.0 6.0 0.00 0.02 0.00 78 1011.8
20260510064033 74 139 3.0 6.0 0.00 0.02 0.00 77 1011.8
20260510063534 74 140 4.0 7.0 0.00 0.02 0.00 77 1011.8
20260510063048 74 155 4.0 7.0 0.00 0.02 0.00 77 1011.8
20260510062531 74 161 3.0 8.0 0.00 0.02 0.00 77 1011.7
20260510062033 74 152 3.0 9.0 0.00 0.02 0.00 77 1011.7
20260510061548 74 153 5.0 9.0 0.00 0.02 0.00 77 1011.8
20260510061037 75 162 4.0 7.0 0.00 0.02 0.00 77 1011.7
20260510060539 75 169 3.0 8.0 0.00 0.02 0.00 76 1011.8
20260510060046 75 170 3.0 9.0 0.00 0.02 0.00 76 1011.7
20260510055533 75 193 5.0 14.0 0.00 0.02 0.00 76 1011.6
20260510055036 75 161 4.0 14.0 0.00 0.02 0.00 76 1011.6
20260510054546 75 173 6.0 11.0 0.00 0.02 0.00 76 1011.5
20260510054034 75 149 5.0 11.0 0.00 0.02 0.00 76 1011.5
20260510053530 75 174 6.0 11.0 0.00 0.02 0.00 75 1011.3
20260510053050 75 151 7.0 12.0 0.00 0.02 0.00 75 1011.3
20260510052538 76 170 5.0 12.0 0.00 0.02 0.00 75 1011.2
20260510052035 76 152 6.0 12.0 0.00 0.02 0.00 74 1011.2
20260510051552 76 164 6.0 15.0 0.00 0.02 0.00 74 1011.2
20260510051036 76 164 7.0 16.0 0.00 0.02 0.00 74 1011.1
20260510050533 76 138 6.0 16.0 0.00 0.02 0.00 74 1011.1
20260510050058 76 173 5.0 13.0 0.00 0.02 0.00 74 1011.1
20260510045537 76 155 6.0 13.0 0.00 0.02 0.02 75 1011.0
20260510045034 76 164 7.0 11.0 0.00 0.02 0.02 75 1011.0
20260510044552 76 151 5.0 9.0 0.00 0.02 0.02 75 1011.0
20260510044033 76 170 4.0 10.0 0.00 0.02 0.02 75 1011.0
20260510043533 76 170 5.0 10.0 0.00 0.02 0.02 75 1011.1
20260510043047 76 158 5.0 9.0 0.00 0.02 0.02 75 1011.1
20260510042539 76 137 4.0 8.0 0.00 0.02 0.02 75 1011.1
20260510042036 76 155 4.0 7.0 0.00 0.02 0.02 75 1011.0
20260510041555 76 150 3.0 7.0 0.00 0.02 0.02 75 1011.0
20260510041034 76 169 2.0 7.0 0.00 0.02 0.02 75 1011.0
20260510040534 77 146 3.0 8.0 0.00 0.02 0.02 75 1011.1
20260510040053 77 153 3.0 8.0 0.00 0.02 0.02 74 1011.0
20260510035533 77 172 4.0 8.0 0.00 0.02 0.02 74 1010.9
20260510035036 77 149 3.0 7.0 0.00 0.02 0.02 74 1011.0
20260510034609 77 161 4.0 8.0 0.00 0.02 0.02 74 1011.0
20260510034034 77 176 4.0 8.0 0.00 0.02 0.02 74 1010.9
20260510033536 77 153 3.0 6.0 0.00 0.02 0.02 74 1010.8
20260510033052 77 147 3.0 6.0 0.00 0.02 0.02 74 1010.8
20260510032533 77 152 3.0 6.0 0.00 0.02 0.02 74 1010.7
20260510032034 77 178 3.0 6.0 0.00 0.02 0.02 73 1010.6
20260510031547 78 156 3.0 6.0 0.00 0.02 0.02 73 1010.6
20260510031034 78 178 3.0 6.0 0.00 0.02 0.02 73 1010.5
20260510030533 78 158 3.0 6.0 0.00 0.02 0.02 73 1010.5
20260510030046 78 161 3.0 6.0 0.00 0.02 0.02 73 1010.4
20260510025536 78 153 3.0 6.0 0.00 0.02 0.02 72 1010.4
20260510025034 78 178 3.0 7.0 0.00 0.02 0.02 72 1010.3
20260510024545 78 155 3.0 7.0 0.00 0.02 0.02 72 1010.3
20260510024037 78 172 4.0 6.0 0.00 0.02 0.02 71 1010.3
20260510023534 78 174 3.0 6.0 0.00 0.02 0.02 71 1010.2
20260510023049 78 139 3.0 6.0 0.00 0.02 0.02 70 1010.2
20260510022534 79 158 3.0 6.0 0.00 0.02 0.02 69 1010.1
20260510022034 79 172 2.0 4.0 0.00 0.02 0.02 69 1010.1
20260510021558 79 172 2.0 3.0 0.00 0.02 0.02 69 1010.0
20260510021033 80 172 1.0 3.0 0.00 0.02 0.02 68 1009.9
20260510020533 80 172 1.0 3.0 0.00 0.02 0.02 67 1009.8
20260510020047 81 172 2.0 4.0 0.00 0.02 0.02 65 1009.7
20260510015534 81 172 2.0 4.0 0.00 0.02 0.02 64 1009.6
20260510015033 81 198 2.0 4.0 0.00 0.02 0.02 64 1009.4
20260510014552 82 183 2.0 6.0 0.00 0.02 0.02 64 1009.3
20260510014033 82 181 2.0 6.0 0.00 0.02 0.02 63 1009.2
20260510013533 82 185 3.0 6.0 0.00 0.02 0.02 63 1009.1
20260510013046 83 182 3.0 6.0 0.00 0.02 0.02 63 1009.0
20260510012533 83 187 3.0 5.0 0.00 0.02 0.02 62 1008.9
20260510012034 83 187 2.0 5.0 0.00 0.02 0.02 62 1008.8
20260510011555 84 181 3.0 5.0 0.00 0.02 0.02 62 1008.7
20260510011035 84 176 3.0 6.0 0.00 0.02 0.02 61 1008.6
20260510010536 84 178 3.0 6.0 0.00 0.02 0.02 61 1008.6
20260510010049 85 182 2.0 7.0 0.00 0.02 0.02 61 1008.4
20260510005534 85 172 3.0 7.0 0.00 0.02 0.02 60 1008.5
20260510005033 85 178 3.0 7.0 0.00 0.02 0.02 60 1008.4
20260510004551 85 190 3.0 7.0 0.00 0.02 0.02 59 1008.3
20260510004033 86 186 3.0 7.0 0.00 0.02 0.02 59 1008.4
20260510003534 86 201 3.0 7.0 0.00 0.02 0.02 59 1008.4
20260510003102 86 194 3.0 9.0 0.00 0.02 0.02 59 1008.3
20260510002534 86 185 5.0 10.0 0.00 0.02 0.02 58 1008.4
20260510002034 86 187 5.0 10.0 0.00 0.02 0.02 57 1008.4
20260510001552 86 155 4.0 7.0 0.00 0.02 0.02 55 1008.4
20260510001033 87 141 3.0 8.0 0.00 0.02 0.02 55 1008.3
20260510000532 87 160 4.0 8.0 0.00 0.02 0.02 54 1008.4
20260510000053 87 134 4.0 7.0 0.00 0.02 0.02 52 1008.4
20260509235535 88 166 2.0 10.0 0.00 0.02 0.02 53 1008.5
20260509235033 88 174 4.0 10.0 0.00 0.02 0.02 54 1008.5
20260509234551 88 126 3.0 6.0 0.00 0.02 0.02 54 1008.4
20260509234034 88 189 1.0 6.0 0.00 0.02 0.02 52 1008.4
20260509233534 88 230 2.0 8.0 0.00 0.02 0.02 51 1008.3
20260509233050 88 172 5.0 8.0 0.00 0.02 0.02 53 1008.4
20260509232536 88 165 2.0 6.0 0.00 0.02 0.02 51 1008.4
20260509232033 88 152 1.0 8.0 0.00 0.02 0.02 53 1008.4
20260509231547 88 228 3.0 8.0 0.00 0.02 0.02 51 1008.3
20260509231033 89 26 0.0 4.0 0.00 0.02 0.02 52 1008.3
20260509230534 89 82 1.0 4.0 0.00 0.02 0.02 51 1008.3
20260509230049 89 47 2.0 6.0 0.00 0.02 0.02 50 1008.3
20260509225534 89 149 3.0 6.0 0.00 0.02 0.02 50 1008.2
20260509225033 89 150 1.0 7.0 0.00 0.02 0.02 47 1008.2
20260509224545 89 160 3.0 7.0 0.00 0.02 0.02 48 1008.3
20260509224034 89 174 2.0 7.0 0.00 0.02 0.02 53 1008.3
20260509223534 89 224 2.0 7.0 0.00 0.02 0.02 48 1008.3
20260509223046 89 251 2.0 7.0 0.00 0.02 0.02 50 1008.4
20260509222533 89 152 1.0 9.0 0.00 0.02 0.02 52 1008.4
20260509222035 89 241 2.0 9.0 0.00 0.02 0.02 50 1008.3
20260509221548 89 245 5.0 9.0 0.00 0.02 0.02 51 1008.4
20260509221034 89 181 4.0 9.0 0.00 0.02 0.02 51 1008.3
20260509220533 89 114 1.0 7.0 0.00 0.02 0.02 49 1008.4
20260509220045 89 217 3.0 9.0 0.00 0.02 0.02 50 1008.5
20260509215534 89 305 4.0 9.0 0.00 0.02 0.02 50 1008.4
20260509215036 89 261 2.0 8.0 0.00 0.02 0.02 52 1008.5
20260509214600 89 253 0.0 6.0 0.00 0.02 0.02 50 1008.4
20260509214034 89 0 0.0 8.0 0.00 0.02 0.02 52 1008.4
20260509213534 90 286 4.0 8.0 0.00 0.02 0.02 51 1008.6
20260509213049 90 239 4.0 8.0 0.00 0.02 0.02 53 1008.7
20260509212536 89 286 2.0 7.0 0.00 0.02 0.02 54 1008.6
20260509212033 89 0 1.0 8.0 0.00 0.02 0.02 53 1008.7
20260509211549 89 257 3.0 10.0 0.00 0.02 0.02 50 1008.8
20260509211035 89 222 6.0 10.0 0.00 0.02 0.02 52 1008.9
20260509210534 89 248 4.0 10.0 0.00 0.02 0.02 50 1008.9
20260509210049 89 291 1.0 10.0 0.00 0.02 0.02 55 1009.0
20260509205534 89 209 5.0 10.0 0.00 0.02 0.02 56 1009.2
20260509205035 89 189 3.0 10.0 0.00 0.02 0.02 58 1009.2
20260509204546 89 169 5.0 10.0 0.00 0.02 0.02 54 1009.3
20260509204033 89 195 4.0 10.0 0.00 0.02 0.02 56 1009.5
20260509203534 89 320 4.0 11.0 0.00 0.02 0.02 58 1009.6
20260509203046 89 220 5.0 11.0 0.00 0.02 0.02 59 1009.6
20260509202536 88 216 3.0 10.0 0.00 0.02 0.02 61 1009.8
20260509202034 87 208 5.0 10.0 0.00 0.02 0.02 62 1009.8
20260509201548 86 208 4.0 12.0 0.00 0.02 0.02 61 1010.0
20260509201033 88 214 4.0 12.0 0.00 0.02 0.02 62 1010.0
20260509200534 87 264 5.0 12.0 0.00 0.02 0.02 60 1010.2
20260509200101 87 180 4.0 8.0 0.00 0.02 0.02 62 1010.2
20260509195534 85 216 3.0 9.0 0.00 0.02 0.02 64 1010.4
20260509195033 88 176 3.0 9.0 0.00 0.02 0.02 63 1010.5
20260509194552 87 230 3.0 9.0 0.00 0.02 0.02 61 1010.5
20260509194036 87 222 5.0 9.0 0.00 0.02 0.02 61 1010.6
20260509193534 87 249 4.0 12.0 0.00 0.02 0.02 65 1010.7
20260509193049 87 230 5.0 12.0 0.00 0.02 0.02 65 1010.7
20260509192537 87 240 2.0 9.0 0.00 0.02 0.02 61 1010.7
20260509192033 86 261 3.0 9.0 0.00 0.02 0.02 65 1010.7
20260509191547 87 273 3.0 10.0 0.00 0.02 0.02 65 1010.8
20260509191036 87 241 3.0 10.0 0.00 0.02 0.02 66 1010.8
20260509190530 86 284 5.0 12.0 0.00 0.02 0.02 65 1010.9
20260509190048 86 174 4.0 12.0 0.00 0.02 0.02 64 1010.9
20260509185532 86 237 7.0 10.0 0.00 0.02 0.02 64 1011.0
20260509185031 84 234 4.0 9.0 0.00 0.02 0.02 70 1011.0
20260509184548 83 212 4.0 10.0 0.00 0.02 0.02 71 1011.1
20260509184033 85 180 5.0 12.0 0.00 0.02 0.02 67 1011.1
20260509183531 84 168 6.0 12.0 0.00 0.02 0.02 69 1011.1
20260509183103 84 245 4.0 13.0 0.00 0.02 0.02 72 1011.3
20260509182534 84 215 4.0 13.0 0.00 0.02 0.02 70 1011.3
20260509182034 84 224 7.0 13.0 0.00 0.02 0.02 71 1011.3
20260509181553 83 248 6.0 12.0 0.00 0.02 0.02 71 1011.4
20260509181033 84 225 7.0 12.0 0.00 0.02 0.02 70 1011.3
20260509180532 84 187 4.0 11.0 0.00 0.02 0.02 69 1011.5
20260509180055 84 257 7.0 12.0 0.00 0.02 0.02 71 1011.5
20260509175531 84 216 7.0 12.0 0.00 0.02 0.02 71 1011.4
20260509175031 83 216 5.0 10.0 0.00 0.02 0.02 77 1011.6
20260509174552 81 225 7.0 11.0 0.00 0.02 0.02 76 1011.6
20260509174034 81 212 5.0 11.0 0.00 0.02 0.02 75 1011.8
20260509173532 82 226 7.0 12.0 0.00 0.02 0.02 73 1011.8
20260509173052 83 236 6.0 13.0 0.00 0.02 0.02 74 1011.9
20260509172531 81 212 7.0 13.0 0.00 0.02 0.02 76 1011.9
20260509172033 82 236 7.0 13.0 0.00 0.02 0.02 74 1011.8
20260509171547 82 174 5.0 14.0 0.00 0.02 0.02 77 1011.8
20260509171033 82 178 8.0 14.0 0.00 0.02 0.02 74 1011.7
20260509170533 81 249 6.0 16.0 0.00 0.02 0.02 77 1011.6
20260509170047 81 211 9.0 16.0 0.00 0.02 0.02 77 1011.7
20260509165533 81 188 10.0 16.0 0.00 0.02 0.02 78 1011.6
20260509165033 81 190 10.0 17.0 0.00 0.02 0.02 77 1011.6
20260509164545 80 247 9.0 17.0 0.00 0.02 0.02 77 1011.6
20260509164033 80 205 9.0 16.0 0.00 0.02 0.02 82 1011.8
20260509163535 80 217 6.0 13.0 0.00 0.02 0.02 78 1011.8
20260509163056 81 212 7.0 13.0 0.00 0.02 0.02 78 1011.8
20260509162533 81 191 7.0 13.0 0.00 0.02 0.02 80 1011.8
20260509162032 81 216 6.0 12.0 0.00 0.02 0.02 78 1012.0
20260509161548 81 259 6.0 12.0 0.00 0.02 0.02 82 1012.0
20260509161033 81 211 5.0 12.0 0.00 0.02 0.02 81 1012.0
20260509160533 80 201 3.0 10.0 0.01 0.02 0.02 80 1012.1
20260509160049 79 189 4.0 10.0 0.02 0.02 0.02 81 1012.3
20260509155533 78 211 3.0 8.0 0.02 0.02 0.02 85 1012.3
20260509155032 78 212 5.0 8.0 0.02 0.02 0.02 87 1012.3
20260509154546 77 211 3.0 8.0 0.02 0.02 0.02 88 1012.4
20260509154032 77 170 5.0 8.0 0.02 0.02 0.02 91 1012.2
20260509153532 77 167 2.0 7.0 0.02 0.02 0.02 93 1012.5
20260509153054 76 93 2.0 7.0 0.02 0.02 0.02 94 1012.6
20260509152533 75 156 3.0 7.0 0.02 0.02 0.02 93 1012.5
20260509152033 76 137 3.0 8.0 0.02 0.02 0.02 93 1012.6
20260509151553 75 166 3.0 8.0 0.02 0.02 0.02 94 1012.5
20260509151032 75 148 3.0 8.0 0.02 0.02 0.02 95 1012.5
20260509150538 75 143 4.0 8.0 0.01 0.01 0.01 94 1012.4
20260509150050 74 106 4.0 7.0 0.00 0.00 0.00 94 1012.4
20260509145534 74 130 3.0 7.0 0.00 0.00 0.00 93 1012.4
20260509145035 74 133 3.0 7.0 0.00 0.00 0.00 94 1012.6
20260509144548 74 92 2.0 4.0 0.00 0.00 0.00 94 1012.5
20260509144034 74 0 0.0 4.0 0.00 0.00 0.00 94 1012.6
20260509143535 74 47 2.0 4.0 0.00 0.00 0.00 94 1012.6
20260509143056 74 82 1.0 3.0 0.00 0.00 0.00 94 1012.5
20260509142533 74 85 2.0 4.0 0.00 0.00 0.00 94 1012.3
20260509142036 74 90 1.0 4.0 0.00 0.00 0.00 94 1012.4
20260509141548 74 70 1.0 4.0 0.00 0.00 0.00 94 1012.2
20260509141034 74 153 1.0 4.0 0.00 0.00 0.00 94 1012.2
20260509140533 74 203 0.0 4.0 0.00 0.00 0.00 94 1012.0
20260509140057 74 54 2.0 4.0 0.00 0.00 0.00 94 1011.9
20260509135535 74 31 2.0 4.0 0.00 0.00 0.00 94 1011.8
20260509135036 74 2 0.0 3.0 0.00 0.00 0.00 94 1011.7
20260509134544 73 71 0.0 3.0 0.00 0.00 0.00 94 1011.6
20260509134035 74 345 0.0 8.0 0.00 0.00 0.00 94 1011.6
20260509133535 74 51 2.0 8.0 0.00 0.00 0.00 94 1011.6
20260509133049 73 40 3.0 7.0 0.00 0.00 0.00 94 1011.6
20260509132534 73 51 2.0 7.0 0.00 0.00 0.00 94 1011.5
20260509132033 73 76 3.0 7.0 0.00 0.00 0.00 95 1011.4
20260509131552 73 97 2.0 5.0 0.00 0.00 0.00 95 1011.7
20260509131033 73 88 1.0 6.0 0.00 0.00 0.00 95 1012.0
20260509130534 73 126 2.0 7.0 0.00 0.00 0.00 94 1011.9
20260509130047 73 160 3.0 7.0 0.00 0.00 0.00 94 1011.8
20260509125533 73 143 4.0 7.0 0.00 0.00 0.00 94 1011.7
20260509125033 73 51 4.0 7.0 0.00 0.00 0.00 94 1011.9
20260509124551 73 70 2.0 8.0 0.00 0.00 0.00 94 1011.9
20260509124033 72 93 3.0 8.0 0.00 0.00 0.00 94 1011.8
20260509123533 72 97 3.0 8.0 0.00 0.00 0.00 94 1012.0
20260509123114 72 68 5.0 11.0 0.00 0.00 0.00 94 1012.2
20260509122534 72 64 4.0 11.0 0.00 0.00 0.00 94 1012.2
20260509122033 72 70 5.0 11.0 0.00 0.00 0.00 94 1012.1
20260509121545 72 55 4.0 8.0 0.00 0.00 0.00 94 1012.1
20260509121033 72 42 3.0 8.0 0.00 0.00 0.00 94 1012.0
20260509120534 72 48 4.0 8.0 0.00 0.00 0.00 94 1011.7
20260509120049 72 51 4.0 8.0 0.00 0.00 0.00 94 1011.5
20260509115535 72 49 3.0 7.0 0.00 0.00 0.00 94 1011.3
20260509115033 72 45 3.0 5.0 0.00 0.00 0.00 94 1011.3
20260509114553 72 34 2.0 5.0 0.00 0.00 0.00 94 1011.0
20260509114034 72 65 2.0 4.0 0.00 0.00 0.00 94 1011.1
20260509113537 72 76 1.0 6.0 0.00 0.00 0.00 94 1010.9
20260509113047 72 70 1.0 6.0 0.00 0.00 0.00 94 1011.0
20260509112533 72 86 2.0 6.0 0.00 0.00 0.00 94 1011.0
20260509112033 72 84 2.0 6.0 0.00 0.00 0.00 94 1011.1
20260509111546 72 95 3.0 6.0 0.00 0.00 0.00 94 1011.0
20260509111034 72 64 2.0 5.0 0.00 0.00 0.00 94 1011.0
20260509110533 72 61 2.0 8.0 0.00 0.00 0.00 94 1010.9
20260509110044 72 60 2.0 9.0 0.00 0.00 0.00 94 1010.8
20260509105534 72 49 3.0 9.0 0.00 0.00 0.00 94 1010.8
20260509105033 72 49 4.0 8.0 0.00 0.00 0.00 94 1010.9
20260509104546 72 67 3.0 7.0 0.00 0.00 0.00 94 1010.8
20260509104035 72 26 2.0 5.0 0.00 0.00 0.00 94 1011.0
20260509103534 72 72 3.0 5.0 0.00 0.00 0.00 94 1010.8
20260509103057 72 53 2.0 6.0 0.00 0.00 0.00 94 1010.7
20260509102534 72 0 1.0 6.0 0.00 0.00 0.00 94 1010.8
20260509102034 72 85 2.0 4.0 0.00 0.00 0.00 94 1010.7
20260509101548 72 101 1.0 4.0 0.00 0.00 0.00 94 1010.8
20260509101035 72 101 1.0 3.0 0.00 0.00 0.00 94 1010.8
20260509100533 72 144 0.0 5.0 0.00 0.00 0.00 93 1010.7
20260509100051 72 144 1.0 5.0 0.00 0.00 0.00 93 1010.7
20260509095533 72 118 2.0 6.0 0.00 0.00 0.00 93 1010.4
20260509095032 72 100 1.0 6.0 0.00 0.00 0.00 93 1010.3
20260509094548 72 65 2.0 7.0 0.00 0.00 0.00 93 1010.2
20260509094032 72 43 2.0 8.0 0.00 0.00 0.00 93 1010.0
20260509093533 72 52 4.0 8.0 0.00 0.00 0.00 93 1010.0
20260509093044 72 26 2.0 5.0 0.00 0.00 0.00 93 1010.0
20260509092532 72 63 3.0 5.0 0.00 0.00 0.00 93 1009.9
20260509092033 72 60 3.0 5.0 0.00 0.00 0.00 93 1010.0
20260509091548 72 12 1.0 7.0 0.00 0.00 0.00 93 1009.9
20260509091032 72 62 2.0 7.0 0.00 0.00 0.00 93 1009.6
20260509090532 72 72 3.0 6.0 0.00 0.00 0.00 93 1009.5
20260509090054 72 36 4.0 9.0 0.00 0.00 0.00 93 1009.6
20260509085531 72 51 2.0 9.0 0.00 0.00 0.00 93 1009.8
20260509085032 72 13 4.0 9.0 0.00 0.00 0.00 93 1009.8
20260509084548 72 26 2.0 5.0 0.00 0.00 0.00 93 1009.7
20260509084033 72 10 3.0 5.0 0.00 0.00 0.00 93 1009.7
20260509083532 72 10 1.0 4.0 0.00 0.00 0.00 93 1009.9
20260509083052 72 52 2.0 4.0 0.00 0.00 0.00 93 1009.9
20260509082532 72 37 2.0 4.0 0.00 0.00 0.00 93 1009.8
20260509082033 72 71 3.0 4.0 0.00 0.00 0.00 93 1009.9
20260509081546 72 80 2.0 7.0 0.00 0.00 0.00 93 1010.0
20260509081034 72 102 3.0 7.0 0.00 0.00 0.00 93 1010.0
20260509080532 72 107 2.0 8.0 0.00 0.00 0.00 93 1010.1
20260509080048 72 123 3.0 9.0 0.00 0.00 0.00 93 1010.4
20260509075531 72 141 4.0 9.0 0.00 0.00 0.00 93 1010.5
20260509075031 72 133 2.0 9.0 0.00 0.00 0.00 93 1010.4
20260509074603 72 144 4.0 10.0 0.00 0.00 0.00 93 1010.4
20260509074036 72 131 3.0 12.0 0.00 0.00 0.00 93 1010.5
20260509073534 72 144 5.0 12.0 0.00 0.00 0.00 93 1010.3
20260509073047 72 126 6.0 10.0 0.00 0.00 0.00 93 1010.2
20260509072534 72 117 4.0 11.0 0.00 0.00 0.00 93 1010.1
20260509072035 72 93 6.0 11.0 0.00 0.00 0.00 92 1010.1
20260509071554 72 124 3.0 10.0 0.00 0.00 0.00 93 1010.1